Regional Weather Roundup
Issued by NWS

Home | Current Version | Previous Version | Graphics & Text | Print | Product List | Glossary On
Versions: 1 2 3 4 5 6 7 8 9 10 11 12 13 14 15 16 17 18 19 20 21 22 23 24 25 26 27
000
ASUS45 KSLC 230710
RWRUT

UTAH REGIONAL WEATHER ROUNDUP
NATIONAL WEATHER SERVICE SALT LAKE CITY UT
100 AM MDT THU OCT 23 2014

UTZ001>011-023>025-230800-

NORTHERN UTAH

CITY           SKY/WX    TMP DP  RH WIND       PRES   REMARKS
BRIGHAM CITY   PTCLDY    40  31  71 CALM      30.15F
HILL AFB       CLEAR     47  26  44 E18       30.16F
LOGAN          CLEAR     34  28  79 NE3       30.17S
OGDEN          CLEAR     46  27  47 S10       30.15F
PROVO AIRPORT  CLEAR     41  30  65 CALM      30.19R
SALT LAKE CITY PTCLDY    44  34  67 SE7       30.15S
VERNAL         CLEAR     44  33  65 W3        30.20S
WENDOVER       CLEAR     43  28  56 CALM      30.15F
HEBER CITY     CLEAR     32  27  80 CALM      30.23R
WEST JORDAN    CLEAR     45  34  65 CALM      30.17S

$$

UTZ012>022-026-027-230800-

SOUTHERN/CENTRAL UTAH

CITY           SKY/WX    TMP DP  RH WIND       PRES   REMARKS
BLANDING       CLEAR     47  33  57 N5        30.29S
BRYCE CANYON   PTCLDY    32  24  72 W9        30.31F WCI  24
CEDAR CITY     CLEAR     45  30  55 SW3       30.20F
DELTA          CLEAR     42  31  67 CALM      30.17S
HANKSVILLE       N/A     50  34  53 CALM      30.17R
MILFORD        CLEAR     40  27  59 S3        30.18S
MOAB/CYNLANDS  CLEAR     49  33  54 W3        30.14R
PRICE          CLEAR     46  28  49 N10       30.21S
ST GEORGE      SUNNY     61  30  31 SE5       30.11S

$$

REGIONAL REPORTS     COLORADO/ARIZONA

CITY           SKY/WX    TMP DP  RH WIND       PRES   REMARKS
CRAIG, CO      CLEAR     32  29  88 CALM      30.25S
GRAND JUNCTION CLEAR     47  38  71 E12       30.18S
RIFLE          CLEAR     41  37  86 CALM      30.24S
MONTROSE       CLEAR     47  36  65 SE10      30.25F
CORTEZ         CLEAR     39  33  79 E3        30.25S
PAGE, AZ       CLEAR     59  34  39 W3        30.14S
GRAND CANYON   PTCLDY    34  25  69 CALM      30.28S
KINGMAN        CLEAR     52  39  61 CALM      30.11S
FLAGSTAFF      PTCLDY    36  29  75 CALM      30.30F

$$

REGIONAL REPORTS    NEVADA/IDAHO/WYOMING

CITY           SKY/WX    TMP DP  RH WIND       PRES   REMARKS
LAS VEGAS, NV  PTCLDY    67  29  24 SW9       30.01R
ELY            CLEAR     41  20  43 S12       30.22S
ELKO           CLEAR     39  19  44 CALM      30.12R
POCATELLO, ID  CLOUDY    52  26  36 E7        30.12S
BURLEY         CLOUDY    54  28  36 S13       30.07S
EVANSTON, WY   PTCLDY    41  22  46 SE5       30.25R
ROCK SPRINGS   PTCLDY    40  20  44 SW6       30.24S
KEMMERER       PTCLDY    36  19  51 NW8       30.26R WCI  29

$$



USA.gov is the U.S. government's official web portal to all federal, state and local government web resources and services.